RH
100 100 98 100 94 93 84 75 68 60 58 44 47 51 52 48 46 45 41 39 60 74 72 85 85 82 72 69 61 56 41 36 38 40 46 59 74 97 100 100 100 100 100 100
100 100 100 100 100 98 88 88 68 69 62 48 43 46 49 51 55 50 52 51 50 46 56 99 100 100 91 90 83 82 71 71 71 64 59 92 100 100 100 100 100 94 96 100
100 100 100 100 100 98 96 97 74 85 72 50 46 41 45 51 55 50 55 52 52 51 51 67 95 100 100 100 97 92 84 97 96 90 91 91 90 92 97 100 100 100 100 100
100 100 99 100 100 100 100 100 87 94 76 75 51 46 52 62 58 61 72 63 58 55 59 56 56 63 69 91 100 100 99 91 91 95 97 95 94 98 100 100 100 100 100 100
100 100 100 100 100 100 100 100 92 83 100 96 57 60 59 80 70 78 84 76 67 66 59 64 69 64 68 72 78 100 100 100 100 100 100 100 100 100 100 99 94 95 100 100
82 100 100 100 100 100 100 100 84 86 91 77 68 82 82 96 91 85 100 100 80 67 70 69 65 72 67 58 60 73 89 100 100 100 100 100 99 99 91 88 88 89 95 95
79 87 100 100 100 100 98 100 71 84 79 92 76 85 96 94 84 89 100 99 91 79 79 88 73 63 67 79 84 77 74 86 95 97 95 92 88 86 88 84 84 87 84 88
96 87 92 100 100 100 100 100 90 82 74 74 78 83 96 86 68 86 90 100 90 92 88 92 85 75 63 59 69 80 85 88 86 79 73 71 71 73 77 77 79 86 90 95
98 98 99 96 100 100 100 89 80 79 86 84 80 95 88 97 96 99 100 99 93 97 85 83 96 89 82 92 89 86 68 66 70 74 81 88 90 88 86 85 85 85 94 96
100 98 95 88 96 88 96 82 82 88 90 87 98 99 79 96 100 100 100 98 97 91 84 81 90 97 87 87 100 76 65 72 75 80 80 82 85 83 87 92 91 94 100 100
100 96 82 67 76 89 94 94 99 91 85 96 92 86 75 72 84 100 100 100 99 94 79 88 96 88 84 92 94 90 85 82 71 75 68 70 80 82 83 90 91 94 96 93
100 94 82 80 81 88 100 93 90 99 98 86 92 82 61 54 66 93 99 99 100 86 87 94 96 87 92 97 97 95 79 83 75 58 54 62 73 74 75 85 92 89 86 86
100 97 100 100 100 100 97 93 100 96 86 90 73 62 57 56 64 67 67 80 83 88 91 84 81 91 97 80 83 91 71 72 66 73 72 61 73 77 80 97 94 91 86 78
100 100 100 100 100 100 100 100 93 95 82 74 68 60 64 66 68 65 74 82 92 84 80 86 85 77 81 91 75 49 76 89 97 96 82 78 88 92 88 85 78 69 72 82
100 100 100 100 100 100 100 97 93 85 79 69 66 69 71 72 74 72 82 91 85 82 84 75 73 77 68 56 86 99 100 99 98 85 77 82 85 84 79 78 73 73 74 70
100 100 100 100 100 100 100 90 88 84 74 76 79 82 84 87 84 77 80 86 82 72 71 64 67 74 100 100 100 100 100 97 78 63 73 85 86 88 83 78 77 76 74 62
100 100 100 100 100 100 94 88 84 83 80 84 93 91 92 94 77 76 83 78 82 80 83 94 100 100 100 100 100 100 94 75 63 78 91 88 83 80 82 80 77 65 54 42
100 100 100 100 100 98 95 86 87 86 86 96 98 93 77 77 89 95 96 99 100 100 100 100 100 100 100 100 94 83 70 66 81 87 76 75 82 82 76 64 55 47 37 28
100 100 100 98 93 88 84 90 89 87 95 99 91 96 99 100 98 100 100 100 100 100 100 100 100 97 89 84 78 66 67 76 73 69 80 82 75 59 51 45 38 29 21 16
99 98 95 92 92 96 97 93 91 92 88 78 77 83 87 93 98 98 99 99 97 100 100 100 93 84 74 61 62 66 67 69 77 77 67 56 50 45 39 30 21 16 11 9
98 97 96 94 96 95 88 87 90 86 67 61 63 66 70 77 76 79 90 90 96 94 87 80 71 61 59 57 61 67 70 67 59 53 49 43 36 28 19 15 12 9 7 6
100 100 100 100 94 81 83 86 80 66 59 56 53 59 66 70 83 90 90 85 83 74 62 54 50 55 62 60 57 56 51 48 46 39 30 22 16 12 10 8 7 5 4 4
99 99 93 76 72 72 70 66 60 56 53 54 61 69 75 78 70 69 69 63 54 48 49 50 53 55 52 46 44 43 41 34 25 19 14 10 8 7 6 5 4 4 3 2
84 74 72 74 73 66 60 54 55 63 60 55 57 68 66 61 61 58 57 53 52 52 54 52 49 45 41 41 37 28 20 14 10 9 8 6 5 4 3 3 3 2 2 2
68 75 75 68 60 52 52 58 60 64 64 65 63 62 58 50 51 49 48 49 48 48 50 47 42 37 29 22 15 11 9 8 7 6 5 4 3 3 2 2 2 2 2 2
50 51 52 51 52 53 56 59 63 63 62 58 56 53 57 51 50 49 49 52 50 45 39 30 23 18 12 9 8 7 6 5 4 3 3 2 2 2 2 2 2 1 1 2
55 52 50 52 53 54 57 59 57 51 49 51 60 55 57 58 56 51 48 44 33 26 18 12 9 8 8 6 5 4 3 3 2 2 2 2 2 2 2 1 1 1 1 1
Wind_Speed
44 40 34 31 30 30 28 27 27 23 21 20 21 20 21 21 22 24 30 37 39 40 40 41 43 43 43 44 44 45 44 48 49 50 49 51 54 57 60 64 68 71 75 79
46 43 38 34 33 34 32 30 29 29 25 22 22 22 22 23 24 25 25 25 31 38 40 42 43 45 46 46 46 47 46 46 47 51 52 50 56 60 65 68 72 76 80 83
45 46 41 33 38 36 34 34 31 32 29 26 27 25 25 28 29 28 30 30 28 28 34 42 45 47 50 50 51 51 49 47 51 54 57 59 61 64 67 71 74 78 81 84
48 45 38 39 41 39 38 36 33 34 31 33 32 30 33 35 36 35 34 37 36 35 35 36 36 42 51 53 53 55 55 56 57 59 62 65 67 69 72 76 80 83 86 88
47 44 43 43 44 44 40 38 40 33 34 38 35 36 37 39 44 43 43 43 41 40 42 43 42 41 43 45 51 55 57 58 61 63 66 70 72 74 77 80 83 86 89 92
50 45 43 45 50 48 43 41 40 34 37 38 38 40 41 45 48 48 49 49 50 48 46 47 47 46 46 48 46 50 56 58 60 62 65 66 68 71 76 80 83 87 91 94
50 48 47 48 53 52 44 51 36 38 36 39 41 42 45 47 50 53 51 53 55 55 55 53 51 51 44 47 45 45 46 48 54 57 61 66 71 72 76 80 84 88 93 95
51 48 45 51 56 52 52 46 42 41 40 42 44 46 47 53 54 55 54 55 58 58 58 59 58 58 56 54 51 50 55 59 62 68 72 75 76 81 84 86 87 89 92 92
54 50 50 49 53 53 53 48 44 43 45 47 49 49 50 54 58 59 61 61 60 60 60 61 62 62 61 62 63 64 63 62 67 71 72 75 78 82 83 83 85 86 84 83
56 51 50 52 53 52 53 47 45 49 50 51 52 52 52 55 60 63 66 66 63 62 62 64 62 63 65 68 68 69 69 71 70 72 71 72 73 75 76 77 77 77 80 85
55 54 55 50 56 56 53 51 52 54 53 54 55 56 55 57 59 63 67 68 67 67 64 65 66 68 70 73 73 75 79 79 77 77 70 72 74 74 74 77 80 82 85 88
58 60 57 57 58 56 58 57 56 57 57 57 58 60 59 60 61 64 67 70 71 68 66 68 71 73 75 78 79 81 83 83 81 77 77 81 81 82 82 83 85 88 91 94
61 61 62 62 62 62 62 60 57 60 61 61 61 62 62 62 63 65 65 68 68 68 69 71 73 77 81 81 80 83 84 85 86 89 93 88 87 88 88 89 92 93 96 98
65 66 65 64 63 64 63 62 61 61 63 65 66 63 62 62 65 67 69 72 70 72 73 75 78 82 84 85 86 83 90 95 96 99 98 95 94 94 93 95 95 95 98 104
67 66 65 66 65 65 65 65 63 64 67 66 66 67 67 68 69 70 72 74 75 76 78 81 83 86 89 85 87 93 100 101 100 102 99 96 96 98 99 100 102 104 107 109
69 71 68 67 68 68 68 67 65 68 67 68 69 70 71 71 71 73 73 75 77 80 84 86 89 91 87 88 96 102 103 103 103 99 98 100 101 103 103 105 107 109 112 113
70 69 69 68 69 68 68 66 68 68 69 72 74 75 75 75 76 76 77 80 83 86 87 91 90 91 94 101 105 105 105 105 101 101 103 104 105 106 108 110 113 115 115 113
69 69 68 68 69 67 66 70 70 71 74 76 78 78 79 79 79 81 82 83 87 89 91 93 97 99 104 106 106 105 104 102 103 105 107 108 109 110 113 115 116 116 115 112
69 69 69 69 69 70 72 73 74 76 78 79 80 78 78 80 83 85 85 89 91 93 96 100 103 105 106 106 104 104 103 103 105 108 110 111 112 114 115 116 116 114 112 110
72 72 72 73 73 74 75 77 78 79 79 80 80 80 82 84 86 89 92 95 96 98 101 103 105 105 104 104 105 104 104 107 111 111 112 114 115 116 117 115 113 111 108 104
76 76 76 77 78 78 79 80 79 79 79 80 81 83 85 88 91 93 95 97 100 101 103 104 104 104 105 105 104 106 109 111 112 113 115 116 116 115 112 109 107 104 102 99
79 79 79 80 82 80 78 78 79 80 81 83 84 85 87 89 92 95 96 97 99 101 101 102 103 103 103 105 107 109 110 112 114 115 114 112 110 107 106 103 100 98 96 93
80 79 79 78 76 76 77 78 80 82 84 85 86 87 88 91 91 91 95 98 98 99 100 101 102 105 107 108 109 111 113 113 112 111 109 105 103 101 98 96 94 91 88 85
73 73 73 74 76 77 80 82 83 83 85 87 90 90 90 91 94 95 97 98 97 98 101 104 106 107 108 110 111 111 110 109 107 103 102 99 97 96 93 89 86 84 82 79
70 74 78 79 82 82 83 84 84 85 86 86 84 88 91 93 95 96 97 99 101 103 103 106 107 108 108 109 108 107 104 101 99 97 96 94 91 88 85 82 80 78 75 72
74 76 77 78 79 80 82 83 82 81 82 85 88 90 94 95 96 98 99 100 102 103 105 105 105 107 106 103 100 97 96 94 92 91 88 86 83 81 78 76 73 71 68 65
72 75 76 76 74 75 77 79 82 84 85 88 91 92 95 97 98 99 100 101 102 103 105 104 102 99 96 95 94 91 89 87 86 84 82 80 77 74 72 69 66 64 62 60
Wind_Direction
240 248 255 256 266 272 279 285 290 289 297 305 312 312 313 310 312 304 284 271 272 275 278 282 283 287 292 293 294 291 285 281 281 279 278 276 274 277 280 282 283 285 284 286
240 246 251 253 261 266 275 278 284 284 288 297 303 313 316 315 313 317 310 307 290 280 276 279 280 281 284 286 287 288 287 286 283 284 285 281 278 277 280 281 282 284 286 288
236 242 246 255 251 263 269 273 282 279 286 290 297 305 313 317 320 315 318 311 308 310 296 282 280 281 280 281 283 285 286 283 281 284 285 283 282 282 283 284 285 286 287 289
235 239 245 246 251 257 261 269 274 275 286 291 297 303 310 312 317 319 319 317 314 311 310 308 303 294 285 280 281 281 281 281 281 282 283 284 286 286 287 287 288 289 290 291
232 237 239 249 254 252 255 264 267 274 279 283 297 302 309 307 309 311 313 314 317 312 311 314 313 308 299 292 284 280 283 283 284 284 284 285 285 286 287 288 289 290 290 290
229 233 237 244 249 251 253 259 266 270 274 287 293 293 301 300 301 304 305 307 309 315 312 310 310 316 308 303 293 287 280 280 282 283 283 283 284 284 285 286 287 288 288 288
229 231 235 242 249 252 257 258 266 269 274 283 290 290 291 294 298 298 298 298 304 309 313 308 311 306 311 304 298 295 295 292 288 289 289 288 287 287 290 290 291 292 292 291
233 232 237 238 245 251 253 261 264 270 276 282 287 292 291 293 298 303 300 297 299 304 307 307 308 309 306 308 311 308 303 297 294 295 295 295 293 290 291 291 290 291 291 291
234 234 233 238 246 251 255 260 266 273 279 281 287 292 294 293 294 298 297 297 301 302 304 305 305 306 305 307 308 309 309 306 304 302 300 296 295 294 293 291 290 292 294 295
236 237 235 238 246 250 256 262 267 271 275 284 286 290 292 291 289 291 294 295 300 301 303 304 305 303 304 305 306 308 310 311 307 307 303 302 301 300 300 299 297 297 296 296
236 239 240 242 245 249 256 262 266 271 277 283 286 289 290 291 290 290 291 293 296 299 300 303 304 304 304 303 302 305 308 309 308 305 305 307 306 304 303 301 301 301 300 300
235 239 244 248 249 251 255 260 266 271 278 282 286 290 293 292 289 288 289 291 293 296 300 303 302 302 304 303 302 302 306 307 308 306 309 308 307 308 307 306 304 304 304 303
238 241 245 247 250 252 256 261 268 274 280 283 286 290 290 289 288 289 292 293 295 297 300 299 301 302 301 302 304 305 304 308 314 315 313 310 309 308 308 306 305 304 304 304
240 242 245 247 251 256 261 266 270 277 281 285 289 288 287 287 289 292 294 295 295 296 297 298 299 301 303 303 300 306 315 314 311 311 311 309 308 308 306 305 305 304 305 307
240 243 245 248 251 256 261 269 273 277 282 286 286 286 288 291 293 293 293 293 294 295 297 298 300 300 301 306 315 312 310 309 308 308 308 306 305 305 306 307 307 308 308 308
241 242 245 249 255 260 265 269 274 280 284 284 285 285 287 290 292 293 293 293 294 296 297 300 304 309 311 308 305 305 305 305 305 306 306 306 306 307 307 307 308 308 308 307
242 245 249 254 258 262 267 272 278 281 282 282 282 284 288 290 292 293 294 295 297 299 302 304 304 303 302 302 303 303 302 303 305 306 306 305 305 306 307 307 307 306 307 309
245 249 253 257 261 266 270 275 277 278 279 281 283 285 287 290 294 295 297 297 296 298 299 301 300 300 300 301 301 302 303 303 303 303 303 304 305 306 305 305 306 307 308 308
248 252 256 260 264 267 272 275 278 278 280 282 286 288 290 290 292 292 292 292 292 293 295 296 297 298 299 300 302 303 302 301 302 303 304 304 304 304 305 306 307 308 308 308
249 253 258 262 266 270 272 275 276 277 280 282 284 286 287 288 287 287 288 289 291 294 295 295 297 298 298 301 301 300 301 302 303 303 303 303 304 305 306 307 307 307 308 308
251 255 259 264 268 271 273 274 275 277 280 281 283 284 284 285 286 288 289 291 292 293 293 294 296 297 298 299 300 301 301 301 302 303 303 304 304 305 306 306 306 306 307 308
254 258 262 266 270 271 272 274 276 277 280 282 283 283 285 288 289 290 291 291 291 292 293 295 296 297 298 299 300 300 301 302 302 303 303 304 305 305 305 305 306 307 307 307
258 262 265 267 268 270 273 275 277 279 280 283 284 286 286 286 287 289 291 293 294 294 295 295 296 298 298 300 301 301 301 302 303 303 304 305 305 305 306 306 306 306 306 306
260 261 263 266 270 271 273 275 279 280 281 282 284 285 286 286 289 293 295 295 295 296 296 296 297 299 300 300 300 301 302 303 304 304 304 305 305 306 306 306 306 306 305 306
263 264 266 268 271 272 275 277 280 280 281 284 285 287 289 292 293 295 296 296 296 296 297 298 299 299 299 300 302 303 303 303 304 304 305 305 305 306 306 306 306 305 305 305
263 267 270 272 274 276 276 278 280 282 284 286 288 291 294 295 296 296 295 296 297 297 297 298 299 300 302 303 303 303 303 304 304 305 305 305 306 306 306 306 305 305 306 307
265 267 270 273 275 278 280 281 282 285 287 290 293 294 295 294 294 295 296 296 297 297 299 300 302 302 302 302 303 304 304 304 305 306 306 306 307 307 306 306 306 307 307 308